Time,TemperatureF,DewpointF,PressureIn,WindDirection,WindDirectionDegrees,WindSpeedMPH,WindSpeedGustMPH,Humidity,HourlyPrecipIn,Conditions,Clouds,dailyrainin,SoftwareType,DateUTC
2013-05-07 00:00:00,45.9,23.5,30.16,North,353,0.0,0.0,41,0.00,,CLR,0.00,VWS V14.01,2013-05-07 04:00:00,
2013-05-07 00:01:00,45.9,23.5,30.16,North,353,0.0,0.0,41,0.00,,CLR,0.00,VWS V14.01,2013-05-07 04:01:00,
2013-05-07 00:02:00,45.9,23.5,30.16,North,353,0.0,0.0,41,0.00,,CLR,0.00,VWS V14.01,2013-05-07 04:02:00,
2013-05-07 00:07:00,44.6,24.0,30.16,North,353,0.0,0.0,44,0.00,,CLR,0.00,VWS V14.01,2013-05-07 04:07:00,
2013-05-07 00:12:00,44.6,24.0,30.16,North,353,0.0,0.0,44,0.00,,CLR,0.00,VWS V14.01,2013-05-07 04:12:00,
2013-05-07 00:17:00,44.2,24.8,30.16,North,353,0.0,0.0,46,0.00,,CLR,0.00,VWS V14.01,2013-05-07 04:17:00,
2013-05-07 00:22:00,44.2,24.8,30.16,North,353,0.0,0.0,46,0.00,,CLR,0.00,VWS V14.01,2013-05-07 04:22:00,
2013-05-07 00:27:00,44.2,24.8,30.16,North,353,0.0,0.0,46,0.00,,CLR,0.00,VWS V14.01,2013-05-07 04:27:00,
2013-05-07 00:32:00,43.5,25.1,30.16,North,353,0.0,0.0,48,0.00,,CLR,0.00,VWS V14.01,2013-05-07 04:32:00,
2013-05-07 00:37:00,43.5,25.1,30.16,North,353,0.0,0.0,48,0.00,,CLR,0.00,VWS V14.01,2013-05-07 04:37:00,
2013-05-07 00:42:00,43.5,25.1,30.16,North,353,0.0,0.0,48,0.00,,CLR,0.00,VWS V14.01,2013-05-07 04:42:00,
2013-05-07 00:47:00,43.5,25.1,30.16,North,353,0.0,0.0,48,0.00,,CLR,0.00,VWS V14.01,2013-05-07 04:47:00,
2013-05-07 00:52:00,42.4,25.1,30.16,North,350,0.0,0.0,50,0.00,,CLR,0.00,VWS V14.01,2013-05-07 04:52:00,
2013-05-07 00:57:00,42.4,25.6,30.16,North,350,0.0,0.0,51,0.00,,CLR,0.00,VWS V14.01,2013-05-07 04:57:00,
2013-05-07 01:02:00,42.4,25.6,30.16,North,353,0.0,0.0,51,0.00,,CLR,0.00,VWS V14.01,2013-05-07 05:02:00,
2013-05-07 01:07:00,42.4,25.6,30.16,North,353,0.0,0.0,51,0.00,,CLR,0.00,VWS V14.01,2013-05-07 05:07:00,
2013-05-07 01:12:00,42.4,25.6,30.16,North,353,0.0,0.0,51,0.00,,CLR,0.00,VWS V14.01,2013-05-07 05:12:00,
2013-05-07 01:17:00,42.4,25.6,30.16,North,350,0.0,0.0,51,0.00,,CLR,0.00,VWS V14.01,2013-05-07 05:17:00,
2013-05-07 01:22:00,42.4,25.6,30.16,North,353,0.0,0.0,51,0.00,,CLR,0.00,VWS V14.01,2013-05-07 05:22:00,
2013-05-07 01:27:00,41.4,25.5,30.16,North,353,0.0,0.0,53,0.00,,CLR,0.00,VWS V14.01,2013-05-07 05:27:00,
2013-05-07 01:32:00,41.2,25.8,30.16,North,350,0.0,0.0,54,0.00,,CLR,0.00,VWS V14.01,2013-05-07 05:32:00,
2013-05-07 01:38:00,41.2,25.8,30.16,North,350,0.0,0.0,54,0.00,,CLR,0.00,VWS V14.01,2013-05-07 05:38:00,
2013-05-07 01:43:00,41.2,25.8,30.16,North,350,0.0,0.0,54,0.00,,CLR,0.00,VWS V14.01,2013-05-07 05:43:00,
2013-05-07 01:48:00,40.8,25.9,30.16,North,353,0.0,0.0,55,0.00,,CLR,0.00,VWS V14.01,2013-05-07 05:48:00,
2013-05-07 01:53:00,40.8,25.9,30.16,NNW,343,0.0,0.0,55,0.00,,CLR,0.00,VWS V14.01,2013-05-07 05:53:00,
2013-05-07 01:58:00,40.8,25.9,30.16,NNW,345,0.0,0.0,55,0.00,,CLR,0.00,VWS V14.01,2013-05-07 05:58:00,
2013-05-07 02:03:00,40.3,26.7,30.16,NNW,345,0.0,0.0,58,0.00,,CLR,0.00,VWS V14.01,2013-05-07 06:03:00,
2013-05-07 02:08:00,40.3,26.7,30.16,North,0,0.0,0.0,58,0.00,,CLR,0.00,VWS V14.01,2013-05-07 06:08:00,
2013-05-07 02:13:00,40.3,26.7,30.16,North,0,0.0,0.0,58,0.00,,CLR,0.00,VWS V14.01,2013-05-07 06:13:00,
2013-05-07 02:18:00,40.3,26.7,30.16,North,0,0.0,0.0,58,0.00,,CLR,0.00,VWS V14.01,2013-05-07 06:18:00,
2013-05-07 02:23:00,40.3,26.7,30.16,North,357,0.0,0.0,58,0.00,,CLR,0.00,VWS V14.01,2013-05-07 06:23:00,
2013-05-07 02:28:00,39.9,28.0,30.16,North,357,0.0,0.0,62,0.00,,CLR,0.00,VWS V14.01,2013-05-07 06:28:00,
2013-05-07 02:33:00,39.7,28.2,30.16,North,2,0.0,0.0,63,0.00,,CLR,0.00,VWS V14.01,2013-05-07 06:33:00,
2013-05-07 02:38:00,39.7,28.2,30.16,North,2,0.0,0.0,63,0.00,,CLR,0.00,VWS V14.01,2013-05-07 06:38:00,
2013-05-07 02:43:00,39.7,28.2,30.16,North,353,0.0,0.0,63,0.00,,CLR,0.00,VWS V14.01,2013-05-07 06:43:00,
2013-05-07 02:48:00,39.7,28.2,30.16,North,357,0.0,0.0,63,0.00,,CLR,0.00,VWS V14.01,2013-05-07 06:48:00,
2013-05-07 02:53:00,39.7,28.2,30.16,North,357,0.0,0.0,63,0.00,,CLR,0.00,VWS V14.01,2013-05-07 06:53:00,
2013-05-07 02:58:00,39.7,28.2,30.16,North,357,0.0,0.0,63,0.00,,CLR,0.00,VWS V14.01,2013-05-07 06:58:00,
2013-05-07 03:03:00,39.7,28.2,30.16,North,357,0.0,0.0,63,0.00,,CLR,0.00,VWS V14.01,2013-05-07 07:03:00,
2013-05-07 03:08:00,39.7,28.2,30.16,North,357,0.0,0.0,63,0.00,,CLR,0.00,VWS V14.01,2013-05-07 07:08:00,
2013-05-07 03:13:00,39.7,28.2,30.16,North,357,0.0,0.0,63,0.00,,CLR,0.00,VWS V14.01,2013-05-07 07:13:00,
2013-05-07 03:18:00,39.7,28.2,30.16,North,357,0.0,0.0,63,0.00,,CLR,0.00,VWS V14.01,2013-05-07 07:18:00,
2013-05-07 03:23:00,38.7,29.0,30.16,North,357,0.0,0.0,68,0.00,,CLR,0.00,VWS V14.01,2013-05-07 07:23:00,
2013-05-07 03:28:00,38.7,29.0,30.16,North,357,0.0,0.0,68,0.00,,CLR,0.00,VWS V14.01,2013-05-07 07:28:00,
2013-05-07 03:33:00,38.7,29.0,30.16,North,357,0.0,0.0,68,0.00,,CLR,0.00,VWS V14.01,2013-05-07 07:33:00,
2013-05-07 03:38:00,38.7,29.0,30.16,North,357,0.0,0.0,68,0.00,,CLR,0.00,VWS V14.01,2013-05-07 07:38:00,
2013-05-07 03:43:00,38.3,29.0,30.16,North,357,0.0,0.0,69,0.00,,CLR,0.00,VWS V14.01,2013-05-07 07:43:00,
2013-05-07 03:48:00,38.3,29.0,30.16,North,357,0.0,0.0,69,0.00,,CLR,0.00,VWS V14.01,2013-05-07 07:48:00,
2013-05-07 03:53:00,38.3,29.0,30.16,North,357,0.0,0.0,69,0.00,,CLR,0.00,VWS V14.01,2013-05-07 07:53:00,
2013-05-07 03:58:00,38.1,29.2,30.16,North,357,0.0,0.0,70,0.00,,CLR,0.00,VWS V14.01,2013-05-07 07:58:00,
2013-05-07 04:03:00,38.1,29.2,30.16,North,357,0.0,0.0,70,0.00,,CLR,0.00,VWS V14.01,2013-05-07 08:03:00,
2013-05-07 04:08:00,37.9,29.4,30.16,North,357,0.0,0.0,71,0.00,,CLR,0.00,VWS V14.01,2013-05-07 08:08:00,
2013-05-07 04:13:00,37.9,29.4,30.16,North,353,0.0,0.0,71,0.00,,CLR,0.00,VWS V14.01,2013-05-07 08:13:00,
2013-05-07 04:18:00,37.8,29.2,30.16,North,353,0.0,0.0,71,0.00,,CLR,0.00,VWS V14.01,2013-05-07 08:18:00,
2013-05-07 04:23:00,37.8,29.2,30.16,North,357,0.0,0.0,71,0.00,,CLR,0.00,VWS V14.01,2013-05-07 08:23:00,
2013-05-07 04:28:00,37.6,29.4,30.16,North,357,0.0,0.0,72,0.00,,CLR,0.00,VWS V14.01,2013-05-07 08:28:00,
2013-05-07 04:34:00,37.6,29.4,30.16,North,0,0.0,0.0,72,0.00,,CLR,0.00,VWS V14.01,2013-05-07 08:34:00,
2013-05-07 04:39:00,37.6,29.4,30.16,North,1,0.0,0.0,72,0.00,,CLR,0.00,VWS V14.01,2013-05-07 08:39:00,
2013-05-07 04:44:00,37.4,29.5,30.16,North,357,0.0,0.0,73,0.00,,CLR,0.00,VWS V14.01,2013-05-07 08:44:00,
2013-05-07 04:49:00,37.4,29.5,30.16,North,357,0.0,0.0,73,0.00,,CLR,0.00,VWS V14.01,2013-05-07 08:49:00,
2013-05-07 04:54:00,37.4,29.5,30.16,North,2,0.0,0.0,73,0.00,,CLR,0.00,VWS V14.01,2013-05-07 08:54:00,
2013-05-07 04:59:00,37.2,29.7,30.16,North,0,0.0,0.0,74,0.00,,CLR,0.00,VWS V14.01,2013-05-07 08:59:00,
2013-05-07 05:04:00,37.2,29.7,30.16,North,2,0.0,0.0,74,0.00,,CLR,0.00,VWS V14.01,2013-05-07 09:04:00,
2013-05-07 05:09:00,37.2,29.7,30.16,North,357,0.0,0.0,74,0.00,,CLR,0.00,VWS V14.01,2013-05-07 09:09:00,
2013-05-07 05:14:00,37.0,29.9,30.16,North,0,0.0,0.0,75,0.00,,CLR,0.00,VWS V14.01,2013-05-07 09:14:00,
2013-05-07 05:19:00,37.0,29.9,30.16,North,357,0.0,0.0,75,0.00,,CLR,0.00,VWS V14.01,2013-05-07 09:19:00,
2013-05-07 05:24:00,37.0,29.9,30.16,North,2,0.0,0.0,75,0.00,,CLR,0.00,VWS V14.01,2013-05-07 09:24:00,
2013-05-07 05:29:00,37.0,29.9,30.16,North,357,0.0,0.0,75,0.00,,CLR,0.00,VWS V14.01,2013-05-07 09:29:00,
2013-05-07 05:34:00,37.0,29.9,30.16,North,2,0.0,0.0,75,0.00,,CLR,0.00,VWS V14.01,2013-05-07 09:34:00,
2013-05-07 05:39:00,36.7,29.8,30.16,North,2,0.0,0.0,76,0.00,,CLR,0.00,VWS V14.01,2013-05-07 09:39:00,
2013-05-07 05:44:00,36.7,29.8,30.16,North,1,0.0,0.0,76,0.00,,CLR,0.00,VWS V14.01,2013-05-07 09:44:00,
2013-05-07 05:49:00,36.5,29.7,30.16,North,2,0.0,0.0,76,0.00,,CLR,0.00,VWS V14.01,2013-05-07 09:49:00,
2013-05-07 05:54:00,36.5,29.7,30.16,North,0,0.0,0.0,76,0.00,,CLR,0.00,VWS V14.01,2013-05-07 09:54:00,
2013-05-07 05:59:00,36.5,29.7,30.16,North,357,0.0,0.0,76,0.00,,CLR,0.00,VWS V14.01,2013-05-07 09:59:00,
2013-05-07 06:04:00,36.5,30.0,30.19,North,1,0.0,0.0,77,0.00,,CLR,0.00,VWS V14.01,2013-05-07 10:04:00,
2013-05-07 06:09:00,36.5,30.0,30.19,North,0,0.0,0.0,77,0.00,,CLR,0.00,VWS V14.01,2013-05-07 10:09:00,
2013-05-07 06:14:00,36.5,30.0,30.19,North,1,0.0,0.0,77,0.00,,CLR,0.00,VWS V14.01,2013-05-07 10:14:00,
2013-05-07 06:19:00,36.7,30.5,30.19,North,1,0.0,0.0,78,0.00,,CLR,0.00,VWS V14.01,2013-05-07 10:19:00,
2013-05-07 06:24:00,36.7,30.5,30.19,North,357,0.0,0.0,78,0.00,,CLR,0.00,VWS V14.01,2013-05-07 10:24:00,
2013-05-07 06:29:00,36.9,30.6,30.19,North,0,0.0,0.0,78,0.00,,CLR,0.00,VWS V14.01,2013-05-07 10:29:00,
2013-05-07 06:34:00,37.0,30.8,30.19,North,0,0.0,0.0,78,0.00,,CLR,0.00,VWS V14.01,2013-05-07 10:34:00,
2013-05-07 06:39:00,37.0,31.1,30.19,North,357,0.0,0.0,79,0.00,,CLR,0.00,VWS V14.01,2013-05-07 10:39:00,
2013-05-07 06:44:00,37.0,31.1,30.19,North,1,0.0,0.0,79,0.00,,CLR,0.00,VWS V14.01,2013-05-07 10:44:00,
2013-05-07 06:49:00,37.6,31.7,30.19,North,357,0.0,0.0,79,0.00,,CLR,0.00,VWS V14.01,2013-05-07 10:49:00,
2013-05-07 06:54:00,38.1,32.2,30.19,North,357,0.0,0.0,79,0.00,,CLR,0.00,VWS V14.01,2013-05-07 10:54:00,
2013-05-07 06:59:00,38.1,32.2,30.16,North,0,0.0,0.0,79,0.00,,CLR,0.00,VWS V14.01,2013-05-07 10:59:00,
2013-05-07 07:04:00,38.8,33.2,30.16,North,357,0.0,0.0,80,0.00,,CLR,0.00,VWS V14.01,2013-05-07 11:04:00,
2013-05-07 07:09:00,38.8,33.2,30.16,North,1,0.0,0.0,80,0.00,,CLR,0.00,VWS V14.01,2013-05-07 11:09:00,
2013-05-07 07:14:00,40.5,35.4,30.16,North,1,0.0,0.0,82,0.00,,CLR,0.00,VWS V14.01,2013-05-07 11:14:00,
2013-05-07 07:20:00,41.2,36.1,30.19,North,2,0.0,0.0,82,0.00,,CLR,0.00,VWS V14.01,2013-05-07 11:20:00,
2013-05-07 07:25:00,41.4,36.3,30.19,North,357,0.0,0.0,82,0.00,,CLR,0.00,VWS V14.01,2013-05-07 11:25:00,
2013-05-07 07:30:00,43.3,38.5,30.19,North,2,0.0,0.0,83,0.00,,CLR,0.00,VWS V14.01,2013-05-07 11:30:00,
2013-05-07 07:35:00,43.3,38.5,30.19,North,357,0.0,0.0,83,0.00,,CLR,0.00,VWS V14.01,2013-05-07 11:35:00,
2013-05-07 07:40:00,47.7,42.1,30.19,North,2,0.0,0.0,81,0.00,,CLR,0.00,VWS V14.01,2013-05-07 11:40:00,
2013-05-07 07:45:00,47.7,42.1,30.19,North,0,0.0,0.0,81,0.00,,CLR,0.00,VWS V14.01,2013-05-07 11:45:00,
2013-05-07 07:50:00,49.6,42.0,30.19,North,0,0.0,0.0,75,0.00,,CLR,0.00,VWS V14.01,2013-05-07 11:50:00,
2013-05-07 07:55:00,51.6,41.4,30.19,North,2,0.0,0.0,68,0.00,,CLR,0.00,VWS V14.01,2013-05-07 11:55:00,
2013-05-07 08:00:00,51.6,41.4,30.19,North,357,0.0,0.0,68,0.00,,CLR,0.00,VWS V14.01,2013-05-07 12:00:00,
2013-05-07 08:05:00,54.5,43.0,30.19,North,0,0.0,0.0,65,0.00,,CLR,0.00,VWS V14.01,2013-05-07 12:05:00,
2013-05-07 08:10:00,56.3,44.7,30.19,North,0,0.0,0.0,65,0.00,,CLR,0.00,VWS V14.01,2013-05-07 12:10:00,
2013-05-07 08:15:00,57.0,44.1,30.19,North,357,0.0,0.0,62,0.00,,CLR,0.00,VWS V14.01,2013-05-07 12:15:00,
2013-05-07 08:20:00,58.3,42.7,30.19,North,357,0.0,0.0,56,0.00,,CLR,0.00,VWS V14.01,2013-05-07 12:20:00,
2013-05-07 08:25:00,58.3,42.7,30.19,North,2,0.0,0.0,56,0.00,,CLR,0.00,VWS V14.01,2013-05-07 12:25:00,
2013-05-07 08:30:00,59.4,41.8,30.19,North,2,0.0,0.0,52,0.00,,CLR,0.00,VWS V14.01,2013-05-07 12:30:00,
2013-05-07 08:35:00,59.4,41.8,30.19,SSE,163,0.0,0.0,52,0.00,,CLR,0.00,VWS V14.01,2013-05-07 12:35:00,
2013-05-07 08:40:00,61.2,43.4,30.19,SSE,164,0.0,0.0,52,0.00,,CLR,0.00,VWS V14.01,2013-05-07 12:40:00,
2013-05-07 08:45:00,61.2,43.4,30.19,SSE,155,3.1,3.1,52,0.00,,CLR,0.00,VWS V14.01,2013-05-07 12:45:00,
2013-05-07 08:50:00,61.9,43.6,30.19,SSE,151,3.6,3.6,51,0.00,,CLR,0.00,VWS V14.01,2013-05-07 12:50:00,
2013-05-07 08:55:00,62.1,43.2,30.19,SSE,161,0.0,0.0,50,0.00,,CLR,0.00,VWS V14.01,2013-05-07 12:55:00,
2013-05-07 09:00:00,62.1,43.2,30.19,SSE,149,2.7,2.7,50,0.00,,CLR,0.00,VWS V14.01,2013-05-07 13:00:00,
2013-05-07 09:05:00,62.4,43.0,30.19,SSE,152,0.0,0.0,49,0.00,,CLR,0.00,VWS V14.01,2013-05-07 13:05:00,
2013-05-07 09:10:00,62.4,43.0,30.19,South,180,0.0,0.0,49,0.00,,CLR,0.00,VWS V14.01,2013-05-07 13:10:00,
2013-05-07 09:15:00,62.8,42.8,30.19,South,180,0.0,0.0,48,0.00,,CLR,0.00,VWS V14.01,2013-05-07 13:15:00,
2013-05-07 09:20:00,62.8,42.8,30.19,SSE,166,4.0,4.0,48,0.00,,CLR,0.00,VWS V14.01,2013-05-07 13:20:00,
2013-05-07 09:25:00,63.0,43.0,30.19,South,171,0.0,0.0,48,0.00,,CLR,0.00,VWS V14.01,2013-05-07 13:25:00,
2013-05-07 09:30:00,63.5,42.9,30.19,South,185,0.0,0.0,47,0.00,,CLR,0.00,VWS V14.01,2013-05-07 13:30:00,
2013-05-07 09:35:00,63.7,43.1,30.19,SE,144,3.1,3.1,47,0.00,,CLR,0.00,VWS V14.01,2013-05-07 13:35:00,
2013-05-07 09:40:00,64.0,42.9,30.19,SSE,167,0.0,0.0,46,0.00,,CLR,0.00,VWS V14.01,2013-05-07 13:40:00,
2013-05-07 09:45:00,64.8,42.4,30.19,SSE,162,3.1,3.1,44,0.00,,CLR,0.00,VWS V14.01,2013-05-07 13:45:00,
2013-05-07 09:50:00,64.9,42.5,30.19,South,184,2.2,3.1,44,0.00,,CLR,0.00,VWS V14.01,2013-05-07 13:50:00,
2013-05-07 09:55:00,65.5,42.4,30.19,SSW,208,0.0,0.0,43,0.00,,CLR,0.00,VWS V14.01,2013-05-07 13:55:00,
2013-05-07 10:00:00,65.5,42.4,30.19,South,170,5.4,5.4,43,0.00,,CLR,0.00,VWS V14.01,2013-05-07 14:00:00,
2013-05-07 10:05:00,65.8,41.5,30.19,ESE,106,0.0,0.0,41,0.00,,CLR,0.00,VWS V14.01,2013-05-07 14:05:00,
2013-05-07 10:10:00,66.0,42.3,30.19,SW,232,0.0,2.2,42,0.00,,CLR,0.00,VWS V14.01,2013-05-07 14:10:00,
2013-05-07 10:15:00,66.4,42.0,30.19,WSW,241,4.0,4.0,41,0.00,,CLR,0.00,VWS V14.01,2013-05-07 14:15:00,
2013-05-07 10:20:00,66.4,42.0,30.19,SSE,153,3.6,3.6,41,0.00,,CLR,0.00,VWS V14.01,2013-05-07 14:20:00,
2013-05-07 10:25:00,68.0,42.1,30.19,WSW,240,2.7,3.1,39,0.00,,CLR,0.00,VWS V14.01,2013-05-07 14:25:00,
2013-05-07 10:30:00,69.8,41.7,30.19,WSW,246,0.0,0.0,36,0.00,,CLR,0.00,VWS V14.01,2013-05-07 14:30:00,
2013-05-07 10:35:00,70.5,42.3,30.19,SE,146,2.2,2.2,36,0.00,,CLR,0.00,VWS V14.01,2013-05-07 14:35:00,
2013-05-07 10:40:00,70.5,42.3,30.19,SE,136,2.2,2.2,36,0.00,,CLR,0.00,VWS V14.01,2013-05-07 14:40:00,
2013-05-07 10:45:00,72.1,40.7,30.19,SW,218,3.1,3.1,32,0.00,,CLR,0.00,VWS V14.01,2013-05-07 14:45:00,
2013-05-07 10:50:00,72.0,40.5,30.19,SW,232,2.2,4.9,32,0.00,,CLR,0.00,VWS V14.01,2013-05-07 14:50:00,
2013-05-07 10:55:00,71.6,40.2,30.19,North,7,3.1,3.1,32,0.00,,CLR,0.00,VWS V14.01,2013-05-07 14:55:00,
2013-05-07 11:00:00,71.6,40.2,30.19,SW,232,0.0,0.0,32,0.00,,CLR,0.00,VWS V14.01,2013-05-07 15:00:00,
2013-05-07 11:05:00,72.7,40.3,30.19,WSW,242,0.0,0.0,31,0.00,,CLR,0.00,VWS V14.01,2013-05-07 15:05:00,
2013-05-07 11:10:00,73.0,40.6,30.19,SE,128,0.0,0.0,31,0.00,,CLR,0.00,VWS V14.01,2013-05-07 15:10:00,
2013-05-07 11:15:00,73.4,38.3,30.19,NNE,29,0.0,0.0,28,0.00,,CLR,0.00,VWS V14.01,2013-05-07 15:15:00,
2013-05-07 11:20:00,73.4,38.3,30.19,SSE,160,5.8,5.8,28,0.00,,CLR,0.00,VWS V14.01,2013-05-07 15:20:00,
2013-05-07 11:25:00,73.4,36.5,30.19,South,181,3.6,3.6,26,0.00,,CLR,0.00,VWS V14.01,2013-05-07 15:25:00,
2013-05-07 11:30:00,74.7,37.5,30.19,South,177,3.6,3.6,26,0.00,,CLR,0.00,VWS V14.01,2013-05-07 15:30:00,
2013-05-07 11:35:00,74.7,36.5,30.16,SE,140,5.8,5.8,25,0.00,,CLR,0.00,VWS V14.01,2013-05-07 15:35:00,
2013-05-07 11:40:00,74.7,37.5,30.16,SE,144,4.9,4.9,26,0.00,,CLR,0.00,VWS V14.01,2013-05-07 15:40:00,
2013-05-07 11:46:00,75.0,37.8,30.16,SSW,200,3.1,3.1,26,0.00,,CLR,0.00,VWS V14.01,2013-05-07 15:46:00,
2013-05-07 11:51:00,75.0,37.8,30.16,North,11,4.9,4.9,26,0.00,,CLR,0.00,VWS V14.01,2013-05-07 15:51:00,
2013-05-07 11:56:00,74.3,38.2,30.16,SSW,194,0.0,0.0,27,0.00,,CLR,0.00,VWS V14.01,2013-05-07 15:56:00,
2013-05-07 12:01:00,74.7,38.5,30.16,SSE,150,5.4,5.4,27,0.00,,CLR,0.00,VWS V14.01,2013-05-07 16:01:00,
2013-05-07 12:06:00,75.4,37.2,30.16,WNW,298,0.0,0.0,25,0.00,,CLR,0.00,VWS V14.01,2013-05-07 16:06:00,
2013-05-07 12:11:00,75.4,38.2,30.16,SSE,151,3.1,3.1,26,0.00,,CLR,0.00,VWS V14.01,2013-05-07 16:11:00,
2013-05-07 12:16:00,75.7,38.5,30.16,SSW,213,0.0,0.0,26,0.00,,CLR,0.00,VWS V14.01,2013-05-07 16:16:00,
2013-05-07 12:21:00,75.7,38.5,30.16,South,172,5.4,5.4,26,0.00,,CLR,0.00,VWS V14.01,2013-05-07 16:21:00,
2013-05-07 12:26:00,75.6,37.3,30.16,NNE,29,0.0,0.0,25,0.00,,CLR,0.00,VWS V14.01,2013-05-07 16:26:00,
2013-05-07 12:31:00,76.1,37.8,30.16,SSE,165,0.0,3.1,25,0.00,,CLR,0.00,VWS V14.01,2013-05-07 16:31:00,
2013-05-07 12:36:00,76.6,38.2,30.16,SSE,165,0.0,0.0,25,0.00,,CLR,0.00,VWS V14.01,2013-05-07 16:36:00,
2013-05-07 12:41:00,77.0,37.5,30.16,SSE,147,0.0,0.0,24,0.00,,CLR,0.00,VWS V14.01,2013-05-07 16:41:00,
2013-05-07 12:46:00,76.8,37.3,30.16,SSE,167,2.2,2.2,24,0.00,,CLR,0.00,VWS V14.01,2013-05-07 16:46:00,
2013-05-07 12:51:00,76.5,36.0,30.16,NNW,338,0.0,0.0,23,0.00,,CLR,0.00,VWS V14.01,2013-05-07 16:51:00,
2013-05-07 12:56:00,76.5,34.8,30.16,East,84,2.7,2.7,22,0.00,,CLR,0.00,VWS V14.01,2013-05-07 16:56:00,
2013-05-07 13:01:00,76.5,34.8,30.16,ESE,114,5.4,5.4,22,0.00,,CLR,0.00,VWS V14.01,2013-05-07 17:01:00,
2013-05-07 13:06:00,76.6,36.1,30.16,NE,50,0.0,0.0,23,0.00,,CLR,0.00,VWS V14.01,2013-05-07 17:06:00,
2013-05-07 13:11:00,77.0,35.3,30.16,SSE,156,5.4,5.4,22,0.00,,CLR,0.00,VWS V14.01,2013-05-07 17:11:00,
2013-05-07 13:16:00,77.0,35.3,30.13,SE,141,6.3,6.3,22,0.00,,CLR,0.00,VWS V14.01,2013-05-07 17:16:00,
2013-05-07 13:21:00,77.2,34.3,30.13,ESE,119,0.0,0.0,21,0.00,,CLR,0.00,VWS V14.01,2013-05-07 17:21:00,
2013-05-07 13:26:00,77.2,34.3,30.13,SSE,157,4.5,4.5,21,0.00,,CLR,0.00,VWS V14.01,2013-05-07 17:26:00,
2013-05-07 13:31:00,77.5,35.7,30.13,SE,126,3.1,3.1,22,0.00,,CLR,0.00,VWS V14.01,2013-05-07 17:31:00,
2013-05-07 13:36:00,77.5,35.7,30.13,NNE,23,4.9,4.9,22,0.00,,CLR,0.00,VWS V14.01,2013-05-07 17:36:00,
2013-05-07 13:41:00,76.6,35.0,30.13,SW,230,4.0,5.4,22,0.00,,CLR,0.00,VWS V14.01,2013-05-07 17:41:00,
2013-05-07 13:46:00,77.2,35.4,30.13,SW,233,4.0,4.0,22,0.00,,CLR,0.00,VWS V14.01,2013-05-07 17:46:00,
2013-05-07 13:51:00,77.5,35.7,30.13,WSW,241,3.1,3.1,22,0.00,,CLR,0.00,VWS V14.01,2013-05-07 17:51:00,
2013-05-07 13:56:00,78.3,36.3,30.13,SSE,159,0.0,0.0,22,0.00,,CLR,0.00,VWS V14.01,2013-05-07 17:56:00,
2013-05-07 14:01:00,78.6,35.5,30.13,South,187,3.6,3.6,21,0.00,,CLR,0.00,VWS V14.01,2013-05-07 18:01:00,
2013-05-07 14:06:00,78.4,35.3,30.13,South,169,0.0,0.0,21,0.00,,CLR,0.00,VWS V14.01,2013-05-07 18:06:00,
2013-05-07 14:11:00,78.1,35.0,30.13,North,6,2.7,2.7,21,0.00,,CLR,0.00,VWS V14.01,2013-05-07 18:11:00,
2013-05-07 14:17:00,77.5,34.6,30.13,NW,308,3.6,3.6,21,0.00,,CLR,0.00,VWS V14.01,2013-05-07 18:17:00,
2013-05-07 14:22:00,77.5,34.6,30.13,SSE,154,3.6,3.6,21,0.00,,CLR,0.00,VWS V14.01,2013-05-07 18:22:00,
2013-05-07 14:27:00,78.6,36.6,30.13,SE,135,0.0,5.4,22,0.00,,CLR,0.00,VWS V14.01,2013-05-07 18:27:00,
2013-05-07 14:32:00,79.2,35.9,30.13,SSE,149,6.3,6.3,21,0.00,,CLR,0.00,VWS V14.01,2013-05-07 18:32:00,
2013-05-07 14:37:00,79.3,36.0,30.13,SSE,149,6.3,6.3,21,0.00,,CLR,0.00,VWS V14.01,2013-05-07 18:37:00,
2013-05-07 14:42:00,79.3,36.0,30.13,SSE,166,5.4,5.4,21,0.00,,CLR,0.00,VWS V14.01,2013-05-07 18:42:00,
2013-05-07 14:47:00,79.9,36.5,30.13,SSE,157,0.0,0.0,21,0.00,,CLR,0.00,VWS V14.01,2013-05-07 18:47:00,
2013-05-07 14:52:00,79.9,36.5,30.10,SW,233,3.6,3.6,21,0.00,,CLR,0.00,VWS V14.01,2013-05-07 18:52:00,
2013-05-07 14:57:00,79.3,36.0,30.10,SSE,149,3.6,3.6,21,0.00,,CLR,0.00,VWS V14.01,2013-05-07 18:57:00,
2013-05-07 15:02:00,79.2,35.9,30.10,ESE,122,0.0,0.0,21,0.00,,CLR,0.00,VWS V14.01,2013-05-07 19:02:00,
2013-05-07 15:07:00,79.3,36.0,30.10,SSW,192,0.0,0.0,21,0.00,,CLR,0.00,VWS V14.01,2013-05-07 19:07:00,
2013-05-07 15:12:00,79.9,36.5,30.10,SSE,168,4.0,4.5,21,0.00,,CLR,0.00,VWS V14.01,2013-05-07 19:12:00,
2013-05-07 15:17:00,80.1,36.7,30.10,East,86,0.0,0.0,21,0.00,,CLR,0.00,VWS V14.01,2013-05-07 19:17:00,
2013-05-07 15:22:00,79.3,36.0,30.10,East,96,0.0,0.0,21,0.00,,CLR,0.00,VWS V14.01,2013-05-07 19:22:00,
2013-05-07 15:27:00,79.2,35.9,30.10,South,173,0.0,0.0,21,0.00,,CLR,0.00,VWS V14.01,2013-05-07 19:27:00,
2013-05-07 15:32:00,79.5,36.2,30.10,WSW,245,0.0,0.0,21,0.00,,CLR,0.00,VWS V14.01,2013-05-07 19:32:00,
2013-05-07 15:37:00,79.2,35.9,30.10,SW,232,0.0,0.0,21,0.00,,CLR,0.00,VWS V14.01,2013-05-07 19:37:00,
2013-05-07 15:42:00,79.2,35.9,30.10,SSW,205,0.0,0.0,21,0.00,,CLR,0.00,VWS V14.01,2013-05-07 19:42:00,
2013-05-07 15:47:00,79.5,36.2,30.10,NNW,343,0.0,0.0,21,0.00,,CLR,0.00,VWS V14.01,2013-05-07 19:47:00,
2013-05-07 15:52:00,79.2,35.9,30.10,NNE,20,0.0,0.0,21,0.00,,CLR,0.00,VWS V14.01,2013-05-07 19:52:00,
2013-05-07 15:57:00,79.3,36.0,30.10,ENE,62,2.2,2.2,21,0.00,,CLR,0.00,VWS V14.01,2013-05-07 19:57:00,
2013-05-07 16:02:00,79.3,36.0,30.10,SSE,161,4.0,4.0,21,0.00,,CLR,0.00,VWS V14.01,2013-05-07 20:02:00,
2013-05-07 16:07:00,79.5,36.2,30.10,South,177,4.5,4.5,21,0.00,,CLR,0.00,VWS V14.01,2013-05-07 20:07:00,
2013-05-07 16:12:00,79.2,35.9,30.10,South,172,6.3,6.3,21,0.00,,CLR,0.00,VWS V14.01,2013-05-07 20:12:00,
2013-05-07 16:17:00,78.1,35.0,30.10,NNW,342,0.0,0.0,21,0.00,,CLR,0.00,VWS V14.01,2013-05-07 20:17:00,
2013-05-07 16:22:00,78.1,35.0,30.10,NNE,27,5.8,5.8,21,0.00,,CLR,0.00,VWS V14.01,2013-05-07 20:22:00,
2013-05-07 16:27:00,76.6,33.8,30.10,North,3,0.0,5.8,21,0.00,,CLR,0.00,VWS V14.01,2013-05-07 20:27:00,
2013-05-07 16:32:00,75.9,33.2,30.10,East,98,0.0,0.0,21,0.00,,CLR,0.00,VWS V14.01,2013-05-07 20:32:00,
2013-05-07 16:37:00,75.7,33.1,30.10,NNE,21,0.0,0.0,21,0.00,,CLR,0.00,VWS V14.01,2013-05-07 20:37:00,
2013-05-07 16:42:00,75.2,33.8,30.10,NNE,21,0.0,0.0,22,0.00,,CLR,0.00,VWS V14.01,2013-05-07 20:42:00,
2013-05-07 16:47:00,75.2,33.8,30.10,NNE,21,0.0,0.0,22,0.00,,CLR,0.00,VWS V14.01,2013-05-07 20:47:00,
2013-05-07 16:53:00,74.8,33.5,30.10,NNE,21,0.0,0.0,22,0.00,,CLR,0.00,VWS V14.01,2013-05-07 20:53:00,
2013-05-07 16:58:00,74.8,33.5,30.10,NNE,21,0.0,0.0,22,0.00,,CLR,0.00,VWS V14.01,2013-05-07 20:58:00,
2013-05-07 17:03:00,75.0,33.6,30.07,NNE,21,0.0,0.0,22,0.00,,CLR,0.00,VWS V14.01,2013-05-07 21:03:00,
2013-05-07 17:08:00,75.0,33.6,30.07,NNE,21,0.0,0.0,22,0.00,,CLR,0.00,VWS V14.01,2013-05-07 21:08:00,
2013-05-07 17:13:00,75.0,33.6,30.07,North,8,0.0,0.0,22,0.00,,CLR,0.00,VWS V14.01,2013-05-07 21:13:00,
2013-05-07 17:18:00,75.0,33.6,30.07,North,8,0.0,0.0,22,0.00,,CLR,0.00,VWS V14.01,2013-05-07 21:18:00,
2013-05-07 17:23:00,75.0,33.6,30.07,North,8,0.0,0.0,22,0.00,,CLR,0.00,VWS V14.01,2013-05-07 21:23:00,
2013-05-07 17:28:00,74.1,32.9,30.07,North,8,0.0,0.0,22,0.00,,CLR,0.00,VWS V14.01,2013-05-07 21:28:00,
2013-05-07 17:33:00,73.2,33.2,30.07,North,8,0.0,0.0,23,0.00,,CLR,0.00,VWS V14.01,2013-05-07 21:33:00,
2013-05-07 17:38:00,73.2,33.2,30.07,North,8,0.0,0.0,23,0.00,,CLR,0.00,VWS V14.01,2013-05-07 21:38:00,
2013-05-07 17:43:00,72.3,32.5,30.07,North,8,0.0,0.0,23,0.00,,CLR,0.00,VWS V14.01,2013-05-07 21:43:00,
2013-05-07 17:48:00,72.3,32.5,30.07,North,8,0.0,0.0,23,0.00,,CLR,0.00,VWS V14.01,2013-05-07 21:48:00,
2013-05-07 17:53:00,72.3,32.5,30.07,North,8,0.0,0.0,23,0.00,,CLR,0.00,VWS V14.01,2013-05-07 21:53:00,
2013-05-07 17:58:00,72.3,32.5,30.07,North,8,0.0,0.0,23,0.00,,CLR,0.00,VWS V14.01,2013-05-07 21:58:00,
2013-05-07 18:03:00,71.4,35.7,30.07,North,8,0.0,0.0,27,0.00,,CLR,0.00,VWS V14.01,2013-05-07 22:03:00,
2013-05-07 18:08:00,71.4,35.7,30.07,North,8,0.0,0.0,27,0.00,,CLR,0.00,VWS V14.01,2013-05-07 22:08:00,
2013-05-07 18:13:00,71.1,35.4,30.07,North,8,0.0,0.0,27,0.00,,CLR,0.00,VWS V14.01,2013-05-07 22:13:00,
2013-05-07 18:18:00,70.3,35.7,30.07,North,8,0.0,0.0,28,0.00,,CLR,0.00,VWS V14.01,2013-05-07 22:18:00,
2013-05-07 18:23:00,70.3,35.7,30.07,North,8,0.0,0.0,28,0.00,,CLR,0.00,VWS V14.01,2013-05-07 22:23:00,
2013-05-07 18:28:00,70.3,35.7,30.07,North,8,0.0,0.0,28,0.00,,CLR,0.00,VWS V14.01,2013-05-07 22:28:00,
2013-05-07 18:33:00,69.8,38.6,30.07,North,8,0.0,0.0,32,0.00,,CLR,0.00,VWS V14.01,2013-05-07 22:33:00,
2013-05-07 18:38:00,69.8,38.6,30.07,North,8,0.0,0.0,32,0.00,,CLR,0.00,VWS V14.01,2013-05-07 22:38:00,
2013-05-07 18:43:00,69.8,38.6,30.07,North,7,0.0,0.0,32,0.00,,CLR,0.00,VWS V14.01,2013-05-07 22:43:00,
2013-05-07 18:48:00,69.8,38.6,30.07,North,8,0.0,0.0,32,0.00,,CLR,0.00,VWS V14.01,2013-05-07 22:48:00,
2013-05-07 18:53:00,68.0,37.8,30.07,North,8,0.0,0.0,33,0.00,,CLR,0.00,VWS V14.01,2013-05-07 22:53:00,
2013-05-07 18:58:00,67.6,38.3,30.07,North,8,0.0,0.0,34,0.00,,CLR,0.00,VWS V14.01,2013-05-07 22:58:00,
2013-05-07 19:03:00,67.6,38.3,30.10,North,8,0.0,0.0,34,0.00,,CLR,0.00,VWS V14.01,2013-05-07 23:03:00,
2013-05-07 19:08:00,67.6,38.3,30.10,North,8,0.0,0.0,34,0.00,,CLR,0.00,VWS V14.01,2013-05-07 23:08:00,
2013-05-07 19:14:00,67.6,38.3,30.10,North,8,0.0,0.0,34,0.00,,CLR,0.00,VWS V14.01,2013-05-07 23:14:00,
2013-05-07 19:19:00,67.6,38.3,30.10,North,8,0.0,0.0,34,0.00,,CLR,0.00,VWS V14.01,2013-05-07 23:19:00,
2013-05-07 19:24:00,67.6,38.3,30.10,North,8,0.0,0.0,34,0.00,,CLR,0.00,VWS V14.01,2013-05-07 23:24:00,
2013-05-07 19:29:00,65.5,39.2,30.10,North,8,0.0,0.0,38,0.00,,CLR,0.00,VWS V14.01,2013-05-07 23:29:00,
2013-05-07 19:34:00,65.5,39.9,30.10,North,8,0.0,0.0,39,0.00,,CLR,0.00,VWS V14.01,2013-05-07 23:34:00,
2013-05-07 19:39:00,65.5,39.9,30.10,North,8,0.0,0.0,39,0.00,,CLR,0.00,VWS V14.01,2013-05-07 23:39:00,
2013-05-07 19:44:00,65.5,39.9,30.10,North,8,0.0,0.0,39,0.00,,CLR,0.00,VWS V14.01,2013-05-07 23:44:00,
2013-05-07 19:49:00,64.0,39.9,30.10,NNW,343,0.0,0.0,41,0.00,,CLR,0.00,VWS V14.01,2013-05-07 23:49:00,
2013-05-07 19:54:00,64.0,39.9,30.10,NNW,342,0.0,0.0,41,0.00,,CLR,0.00,VWS V14.01,2013-05-07 23:54:00,
2013-05-07 19:59:00,64.0,39.9,30.10,NNW,342,0.0,0.0,41,0.00,,CLR,0.00,VWS V14.01,2013-05-07 23:59:00,
2013-05-07 20:04:00,64.0,39.9,30.10,NNW,342,0.0,0.0,41,0.00,,CLR,0.00,VWS V14.01,2013-05-08 00:04:00,
2013-05-07 20:09:00,62.2,40.1,30.10,NNW,342,0.0,0.0,44,0.00,,CLR,0.00,VWS V14.01,2013-05-08 00:09:00,
2013-05-07 20:14:00,62.2,40.1,30.10,NNW,346,0.0,0.0,44,0.00,,CLR,0.00,VWS V14.01,2013-05-08 00:14:00,
2013-05-07 20:19:00,62.2,40.1,30.10,North,357,0.0,0.0,44,0.00,,CLR,0.00,VWS V14.01,2013-05-08 00:19:00,
2013-05-07 20:24:00,62.2,40.1,30.10,North,357,0.0,0.0,44,0.00,,CLR,0.00,VWS V14.01,2013-05-08 00:24:00,
2013-05-07 20:29:00,61.0,40.1,30.10,North,357,0.0,0.0,46,0.00,,CLR,0.00,VWS V14.01,2013-05-08 00:29:00,
2013-05-07 20:34:00,61.0,40.1,30.10,North,357,0.0,0.0,46,0.00,,CLR,0.00,VWS V14.01,2013-05-08 00:34:00,
2013-05-07 20:39:00,60.3,39.4,30.10,North,7,0.0,0.0,46,0.00,,CLR,0.00,VWS V14.01,2013-05-08 00:39:00,
2013-05-07 20:44:00,60.1,38.7,30.10,North,357,0.0,0.0,45,0.00,,CLR,0.00,VWS V14.01,2013-05-08 00:44:00,
2013-05-07 20:49:00,60.1,38.7,30.13,North,357,0.0,0.0,45,0.00,,CLR,0.00,VWS V14.01,2013-05-08 00:49:00,
2013-05-07 20:54:00,60.1,38.7,30.13,North,353,0.0,0.0,45,0.00,,CLR,0.00,VWS V14.01,2013-05-08 00:54:00,
2013-05-07 20:59:00,60.1,38.7,30.13,NNW,338,0.0,0.0,45,0.00,,CLR,0.00,VWS V14.01,2013-05-08 00:59:00,
2013-05-07 21:04:00,58.5,37.8,30.13,North,357,0.0,0.0,46,0.00,,CLR,0.00,VWS V14.01,2013-05-08 01:04:00,
2013-05-07 21:09:00,58.5,37.8,30.13,North,357,0.0,0.0,46,0.00,,CLR,0.00,VWS V14.01,2013-05-08 01:09:00,
2013-05-07 21:14:00,58.5,37.8,30.13,North,357,0.0,0.0,46,0.00,,CLR,0.00,VWS V14.01,2013-05-08 01:14:00,
2013-05-07 21:19:00,58.5,37.8,30.13,North,357,0.0,0.0,46,0.00,,CLR,0.00,VWS V14.01,2013-05-08 01:19:00,
2013-05-07 21:24:00,57.0,37.0,30.13,North,357,0.0,0.0,47,0.00,,CLR,0.00,VWS V14.01,2013-05-08 01:24:00,
2013-05-07 21:29:00,57.0,37.0,30.13,North,357,0.0,0.0,47,0.00,,CLR,0.00,VWS V14.01,2013-05-08 01:29:00,
2013-05-07 21:34:00,56.3,36.3,30.13,North,357,0.0,0.0,47,0.00,,CLR,0.00,VWS V14.01,2013-05-08 01:34:00,
2013-05-07 21:39:00,56.3,36.3,30.13,NNW,342,0.0,0.0,47,0.00,,CLR,0.00,VWS V14.01,2013-05-08 01:39:00,
2013-05-07 21:44:00,56.3,36.3,30.13,North,357,0.0,0.0,47,0.00,,CLR,0.00,VWS V14.01,2013-05-08 01:44:00,
2013-05-07 21:49:00,56.3,36.3,30.13,North,0,0.0,0.0,47,0.00,,CLR,0.00,VWS V14.01,2013-05-08 01:49:00,
2013-05-07 21:55:00,56.3,36.3,30.13,NNW,341,0.0,0.0,47,0.00,,CLR,0.00,VWS V14.01,2013-05-08 01:55:00,
2013-05-07 22:00:00,56.3,36.3,30.13,NNW,341,0.0,0.0,47,0.00,,CLR,0.00,VWS V14.01,2013-05-08 02:00:00,
2013-05-07 22:05:00,56.3,36.3,30.13,North,353,0.0,0.0,47,0.00,,CLR,0.00,VWS V14.01,2013-05-08 02:05:00,
2013-05-07 22:10:00,56.3,36.3,30.13,North,353,0.0,0.0,47,0.00,,CLR,0.00,VWS V14.01,2013-05-08 02:10:00,
2013-05-07 22:15:00,54.0,35.2,30.13,North,353,0.0,0.0,49,0.00,,CLR,0.00,VWS V14.01,2013-05-08 02:15:00,
2013-05-07 22:20:00,54.0,35.2,30.16,NNW,334,0.0,0.0,49,0.00,,CLR,0.00,VWS V14.01,2013-05-08 02:20:00,
2013-05-07 22:25:00,53.2,35.1,30.16,NNW,334,0.0,0.0,50,0.00,,CLR,0.00,VWS V14.01,2013-05-08 02:25:00,
2013-05-07 22:30:00,53.2,35.1,30.16,NNW,338,0.0,0.0,50,0.00,,CLR,0.00,VWS V14.01,2013-05-08 02:30:00,
2013-05-07 22:35:00,52.9,34.8,30.16,NNW,338,0.0,0.0,50,0.00,,CLR,0.00,VWS V14.01,2013-05-08 02:35:00,
2013-05-07 22:40:00,52.9,34.8,30.16,NNW,338,0.0,0.0,50,0.00,,CLR,0.00,VWS V14.01,2013-05-08 02:40:00,
2013-05-07 22:45:00,52.9,34.8,30.16,NNW,338,0.0,0.0,50,0.00,,CLR,0.00,VWS V14.01,2013-05-08 02:45:00,
2013-05-07 22:50:00,52.9,34.8,30.16,NNW,338,0.0,0.0,50,0.00,,CLR,0.00,VWS V14.01,2013-05-08 02:50:00,
2013-05-07 22:55:00,52.9,34.8,30.16,NNW,338,0.0,0.0,50,0.00,,CLR,0.00,VWS V14.01,2013-05-08 02:55:00,
2013-05-07 23:00:00,52.9,34.8,30.16,NNW,338,0.0,0.0,50,0.00,,CLR,0.00,VWS V14.01,2013-05-08 03:00:00,
2013-05-07 23:05:00,52.9,34.8,30.16,NNW,338,0.0,0.0,50,0.00,,CLR,0.00,VWS V14.01,2013-05-08 03:05:00,
2013-05-07 23:10:00,52.9,34.8,30.16,NNW,338,0.0,0.0,50,0.00,,CLR,0.00,VWS V14.01,2013-05-08 03:10:00,
2013-05-07 23:15:00,51.1,34.6,30.16,NNW,338,0.0,0.0,53,0.00,,CLR,0.00,VWS V14.01,2013-05-08 03:15:00,
2013-05-07 23:20:00,50.7,34.2,30.16,NNW,338,0.0,0.0,53,0.00,,CLR,0.00,VWS V14.01,2013-05-08 03:20:00,
2013-05-07 23:25:00,50.5,34.5,30.16,NNW,338,0.0,0.0,54,0.00,,CLR,0.00,VWS V14.01,2013-05-08 03:25:00,
2013-05-07 23:30:00,50.5,34.5,30.16,NNW,338,0.0,0.0,54,0.00,,CLR,0.00,VWS V14.01,2013-05-08 03:30:00,
2013-05-07 23:35:00,50.5,34.5,30.16,NNW,338,0.0,0.0,54,0.00,,CLR,0.00,VWS V14.01,2013-05-08 03:35:00,
2013-05-07 23:40:00,50.5,34.5,30.16,NNW,338,0.0,0.0,54,0.00,,CLR,0.00,VWS V14.01,2013-05-08 03:40:00,
2013-05-07 23:45:00,49.8,34.8,30.16,NNW,338,0.0,0.0,56,0.00,,CLR,0.00,VWS V14.01,2013-05-08 03:45:00,
2013-05-07 23:50:00,49.6,34.6,30.16,NNW,338,0.0,0.0,56,0.00,,CLR,0.00,VWS V14.01,2013-05-08 03:50:00,
2013-05-07 23:55:00,49.6,34.6,30.16,NNW,338,0.0,0.0,56,0.00,,CLR,0.00,VWS V14.01,2013-05-08 03:55:00,